SCP
0 0 0 0 0 0 0 0 0 0 0 0 0 0 0 0 0 0 0 0 0 0 0 0 0 0 0 1 1 1 1 0 1 1 1 1 1 1 1 1 1 1 1 1
0 0 0 0 0 0 0 0 0 0 0 0 0 0 0 0 0 0 0 0 0 0 0 0 0 0 0 1 1 1 1 1 0 1 1 1 1 1 1 1 1 1 1 1
0 0 0 0 0 0 0 0 0 0 0 0 0 0 0 0 0 0 0 0 0 0 0 0 0 0 0 1 1 1 1 1 1 0 0 1 1 1 1 1 1 1 1 1
0 0 0 0 0 0 0 0 0 0 0 0 0 0 0 0 0 0 0 0 0 0 0 0 0 0 0 1 1 1 1 1 1 0 0 0 1 1 1 1 1 1 1 1
0 0 0 0 0 0 0 0 0 0 0 0 0 0 0 0 0 0 0 0 0 0 0 0 0 0 0 1 1 1 1 1 1 0 0 0 0 0 0 1 1 1 1 1
0 0 0 0 0 0 0 0 0 0 0 0 0 0 0 0 0 0 0 0 0 0 0 0 0 0 0 0 1 1 1 1 1 0 0 0 0 0 0 0 1 1 1 1
0 0 0 0 0 0 0 0 0 0 0 0 0 0 0 0 0 0 0 0 0 0 0 0 0 0 0 0 1 1 1 1 1 1 0 0 0 0 0 0 0 1 1 1
0 0 0 0 0 0 0 0 0 0 0 0 0 0 0 0 0 0 0 0 0 0 0 0 0 0 0 0 1 1 1 1 1 1 0 0 0 0 0 0 0 0 0 0
0 0 0 0 0 0 0 0 0 0 0 0 0 0 0 0 0 0 0 0 0 0 0 0 0 0 0 0 1 1 1 1 0 0 0 0 0 0 0 0 0 0 0 0
0 0 0 0 0 0 0 0 0 0 0 0 0 0 0 0 0 0 0 0 0 0 0 0 0 0 0 0 0 0 1 0 0 0 0 0 0 0 0 0 0 0 0 0
0 0 0 0 0 0 0 0 0 0 0 0 0 0 0 0 0 0 0 0 0 0 0 0 0 0 0 0 0 0 0 0 0 0 0 0 0 0 0 0 0 0 0 0
0 0 0 0 0 0 0 0 0 0 0 0 0 0 0 0 0 0 0 0 0 0 0 0 0 0 0 0 0 0 0 0 0 0 0 0 0 0 0 0 0 0 0 0
0 0 0 0 0 0 0 0 0 0 0 0 0 0 0 0 0 0 0 0 0 0 0 0 0 0 0 0 0 0 0 0 0 0 0 0 0 0 0 0 0 0 0 0
0 0 0 0 0 0 0 0 0 0 0 0 0 0 0 0 0 0 0 0 0 0 0 0 0 0 0 0 0 0 0 0 0 0 0 0 0 0 0 0 0 0 0 0
0 0 0 0 0 0 0 0 0 0 0 0 0 0 0 0 0 0 0 0 0 0 0 0 0 0 0 0 0 0 0 0 0 0 0 0 0 0 0 0 0 0 0 0
0 0 0 0 0 0 0 0 0 0 0 0 0 0 0 0 0 0 0 0 0 0 0 0 0 0 0 0 0 0 0 0 0 0 0 0 0 0 0 0 0 0 0 0
0 0 0 0 0 0 0 0 0 0 0 0 0 0 0 0 0 0 0 0 0 0 0 0 0 0 0 0 0 0 0 0 0 0 0 0 0 0 0 0 0 0 0 0
0 0 0 0 0 0 0 0 0 0 0 0 0 0 0 0 0 0 0 0 0 0 0 0 0 0 0 0 0 0 0 0 0 0 0 0 0 0 0 0 0 0 0 0
0 0 0 0 0 0 0 0 0 0 0 0 0 0 0 0 0 0 0 0 0 0 0 0 0 0 0 0 0 0 0 0 0 0 0 0 0 0 0 0 0 0 0 0
0 0 0 0 0 0 0 0 0 0 0 0 0 0 0 0 0 0 0 0 0 0 0 0 0 0 0 0 0 0 0 0 0 0 0 0 0 0 0 0 0 0 0 0
0 0 0 0 0 0 0 0 0 0 0 0 0 0 0 0 0 0 0 0 0 0 0 0 0 0 0 0 0 0 0 0 0 0 0 0 0 0 0 0 0 0 0 0
0 0 0 0 0 0 0 0 0 0 0 0 0 0 0 0 0 0 0 0 0 0 0 0 0 0 0 0 0 0 0 0 0 0 0 0 0 0 0 0 0 0 0 0
0 0 0 0 0 0 0 0 0 0 0 0 0 0 0 0 0 0 0 0 0 0 0 0 0 0 0 0 0 0 0 0 0 0 0 0 0 0 0 0 0 0 0 0
0 0 0 0 0 0 0 0 0 0 0 0 0 0 0 0 0 0 0 0 0 0 0 0 0 0 0 0 0 0 0 0 0 0 0 0 0 0 0 0 0 0 0 0
0 0 0 0 0 0 0 0 0 0 0 0 0 0 0 0 0 0 0 0 0 0 0 0 0 0 0 0 0 0 0 0 0 0 0 0 0 0 0 0 0 0 0 0
0 0 0 0 0 0 0 0 0 0 0 0 0 0 0 0 0 0 0 0 0 0 0 0 0 0 0 0 0 0 0 0 0 0 0 0 0 0 0 0 0 0 0 0
Wind_Speed
4 4 5 5 8 8 7 8 8 7 3 5 9 10 9 7 7 7 5 4 4 3 2 2 2 2 2 2 1 1 1 2 2 2 2 2 2 2 2 2 3 4 3 3
4 6 7 6 6 8 9 9 8 5 2 5 8 11 9 7 7 6 4 3 3 2 1 2 3 2 2 1 1 1 1 1 1 2 2 2 2 2 2 2 3 3 3 3
6 3 4 6 6 7 8 8 7 6 5 6 7 8 8 5 6 5 4 3 3 2 2 2 2 2 1 1 0 0 0 0 1 1 1 1 1 1 1 2 3 3 3 4
5 5 4 5 6 7 8 5 6 6 5 5 4 6 6 5 6 6 5 5 3 2 2 2 2 2 1 1 1 0 0 0 0 1 2 3 2 2 2 2 2 2 3 3
3 3 4 6 6 6 5 4 5 7 6 6 6 6 5 4 4 6 5 4 3 3 3 2 2 2 2 2 1 1 1 1 0 1 2 2 2 2 1 2 3 3 3 3
5 3 2 3 4 4 4 3 5 5 3 7 7 7 5 4 5 4 4 4 3 3 3 2 2 3 2 2 2 1 1 2 2 1 1 2 2 2 2 2 2 2 2 2
3 3 1 2 3 2 1 1 2 2 4 7 4 5 6 2 1 2 4 3 3 3 2 2 2 2 1 1 1 1 1 1 2 2 1 1 1 2 3 3 3 2 2 2
3 4 3 1 2 2 4 4 3 4 4 3 2 6 3 2 3 3 3 3 2 2 2 2 1 1 1 1 1 1 1 1 1 1 1 1 0 1 1 1 1 2 2 2
3 4 1 1 2 3 3 5 3 4 4 4 5 4 2 1 1 2 2 2 2 1 2 2 1 1 1 0 0 1 1 1 1 1 1 1 0 1 0 0 1 1 1 1
3 4 3 1 2 3 3 2 2 3 4 6 6 6 4 3 2 2 1 1 1 2 2 2 2 2 1 1 1 1 1 0 1 1 1 1 1 1 0 1 0 1 2 1
3 3 3 2 4 4 3 3 4 4 4 4 5 4 2 1 2 1 1 1 1 2 2 1 1 1 1 1 1 1 1 2 2 1 1 2 2 1 1 1 1 0 1 2
1 2 4 5 2 2 3 4 3 4 5 4 5 5 2 3 3 3 2 2 2 1 2 1 1 1 1 1 1 2 2 2 2 2 2 2 2 2 1 1 1 1 0 1
1 2 3 3 1 1 2 3 4 4 3 4 5 6 1 2 3 2 2 2 1 1 1 1 1 1 1 1 1 1 2 2 2 2 2 2 1 1 1 1 1 1 1 0
2 3 6 7 3 2 5 6 6 5 5 7 9 8 5 4 3 3 2 2 1 1 0 1 1 1 1 1 1 1 2 2 2 2 1 1 2 1 1 1 1 1 1 1
2 5 6 8 8 7 8 9 8 10 10 10 10 10 8 5 5 4 3 2 2 2 2 2 2 1 1 1 2 2 2 2 1 1 1 1 2 2 2 1 1 1 1 1
2 4 4 7 7 8 11 11 11 12 11 11 12 12 6 5 4 3 3 3 2 2 2 2 2 2 2 2 2 2 2 2 1 1 1 1 1 2 2 2 2 1 1 1
3 3 3 6 3 6 10 10 12 10 9 9 12 10 4 4 4 3 2 2 2 3 2 2 2 2 2 2 2 2 2 2 1 1 1 2 1 2 2 2 2 1 1 1
5 4 3 3 2 10 8 3 6 8 9 7 6 5 4 4 3 1 1 1 2 2 3 3 3 2 2 2 2 2 2 1 1 1 1 2 2 2 2 2 2 2 2 1
6 6 4 3 6 10 6 4 4 6 8 5 6 6 4 3 3 1 2 2 1 2 2 2 2 2 2 2 2 2 2 2 2 2 2 2 1 1 2 2 2 2 2 2
4 5 5 5 6 8 5 2 0 1 6 2 3 4 2 1 2 3 1 3 2 2 2 2 2 2 2 2 2 2 2 2 2 2 2 2 1 1 2 2 2 2 1 1
4 5 8 9 8 8 4 2 2 4 6 2 2 2 2 3 3 2 2 2 2 2 3 3 2 2 2 2 1 1 2 2 3 3 2 2 2 2 2 2 2 2 1 1
8 7 7 7 9 10 2 3 5 5 2 2 2 2 2 2 1 1 1 1 2 2 2 2 2 2 3 2 1 1 2 3 3 3 2 2 3 2 2 2 2 2 1 1
8 8 6 8 8 3 3 4 3 2 3 3 3 2 1 2 2 1 2 2 2 2 2 2 2 2 3 3 2 2 3 3 3 2 2 3 3 2 2 2 1 1 1 1
4 3 4 5 6 4 3 2 3 2 3 2 1 1 1 2 2 2 2 2 2 1 1 1 1 1 2 3 3 3 3 3 2 2 2 2 2 2 2 2 1 1 1 1
5 4 4 6 5 4 4 4 3 2 1 2 2 2 2 2 3 2 2 2 1 1 1 1 1 1 2 2 3 3 3 2 2 2 2 2 2 2 2 2 2 2 2 2
5 6 7 8 5 5 5 2 1 1 2 2 2 3 2 2 3 2 2 2 1 1 0 0 1 1 2 2 2 3 2 2 1 2 2 2 2 2 2 2 3 3 3 4
Wind_Direction
196 218 220 224 229 253 271 269 270 273 257 239 239 249 248 238 242 243 233 225 215 201 149 122 109 90 82 73 86 113 124 147 145 157 169 176 195 189 170 160 164 163 161 165
215 233 243 248 249 252 261 268 273 282 280 274 263 257 252 228 230 230 225 219 215 187 159 140 122 103 89 75 61 85 112 145 165 177 184 181 183 185 156 149 159 166 161 162
233 258 260 258 262 260 254 255 267 282 298 261 269 265 238 224 212 223 225 222 222 193 160 134 108 87 87 68 354 343 21 195 188 162 148 137 138 139 155 167 173 175 169 163
258 260 279 265 257 257 261 268 277 280 277 262 238 273 241 219 210 212 209 205 197 151 130 126 123 102 65 15 358 10 358 290 180 153 162 167 176 186 194 172 164 164 169 161
265 283 270 261 268 263 274 309 278 265 265 273 246 255 260 206 222 218 200 182 164 140 131 119 116 116 90 62 33 13 12 351 360 185 187 191 187 188 156 155 162 171 173 169
261 280 292 288 288 279 289 298 272 253 241 250 227 230 258 221 216 198 173 158 148 142 133 116 91 81 71 64 43 18 16 7 3 343 241 196 192 184 167 173 181 176 173 175
247 228 214 312 293 255 248 261 270 241 222 240 207 220 243 212 143 149 152 152 147 135 127 122 110 105 88 64 39 11 25 6 356 355 345 291 214 204 190 185 185 174 176 187
254 248 187 223 267 262 237 223 222 240 247 273 227 228 234 117 92 83 99 116 125 120 120 120 122 120 118 80 26 14 24 14 360 350 335 350 326 225 197 173 170 179 188 196
272 265 231 249 277 254 234 230 255 280 286 273 248 245 238 166 115 115 115 99 110 126 112 99 95 76 64 43 6 62 25 16 358 342 341 347 0 352 334 174 168 169 170 180
312 286 284 299 282 270 266 263 234 229 242 254 254 239 238 203 213 173 133 102 92 96 89 83 81 51 28 8 3 33 32 30 347 354 349 356 348 346 11 49 162 167 164 152
291 269 271 259 218 231 232 243 232 238 247 249 264 255 345 205 152 123 118 84 61 104 103 87 78 71 50 22 11 23 18 16 8 359 7 24 15 11 35 52 30 160 164 156
238 268 260 250 260 314 256 239 224 234 251 249 271 274 12 50 63 66 52 39 35 70 91 83 71 46 39 28 13 7 13 19 5 358 11 26 22 23 32 32 3 12 54 164
195 228 274 278 226 317 287 266 263 268 268 243 245 260 82 34 18 32 30 14 10 23 67 77 62 42 34 27 13 8 5 5 4 3 17 18 23 27 19 13 8 20 18 37
266 230 226 243 274 273 268 266 257 246 247 251 246 261 281 297 303 312 318 317 308 313 26 35 27 24 22 14 6 4 354 2 2 6 11 8 359 359 351 355 8 11 16 25
224 242 246 263 278 275 264 257 245 240 244 248 261 264 269 278 293 298 307 320 342 349 10 17 12 5 3 358 354 350 349 354 354 357 345 338 348 357 1 1 9 7 10 18
226 248 260 266 264 272 270 259 246 246 250 255 265 269 270 289 308 320 330 336 339 340 341 349 352 345 334 329 332 331 326 332 341 336 325 339 355 355 358 357 3 12 3 10
212 212 235 260 282 300 262 237 231 234 234 237 247 256 278 293 290 286 306 325 317 320 336 340 334 325 321 315 323 309 316 333 338 339 339 343 353 352 349 350 356 357 344 2
204 211 229 255 270 244 244 227 220 235 245 241 255 270 270 274 282 287 344 326 330 350 352 338 328 324 332 341 338 338 349 350 339 333 332 338 346 342 343 347 341 339 349 354
208 204 218 218 244 265 264 237 208 226 256 235 252 270 286 308 303 271 38 47 29 7 353 339 337 339 358 4 357 357 355 346 333 324 324 329 333 326 326 326 328 331 343 345
210 204 215 224 239 248 250 216 212 246 264 256 248 260 277 355 269 259 21 23 11 9 4 354 356 9 11 3 12 360 337 330 316 314 314 314 315 301 298 304 314 320 323 322
188 206 218 229 244 256 259 239 129 203 254 275 246 253 233 230 240 279 3 8 3 8 11 13 14 9 353 358 18 335 320 308 314 325 328 325 318 305 298 305 313 319 322 322
192 198 208 213 234 248 211 159 196 238 306 310 298 287 259 237 260 298 319 329 342 354 9 18 17 2 357 359 349 310 304 320 335 333 328 322 318 313 315 316 321 322 308 299
207 203 202 208 227 240 187 212 237 286 287 296 295 301 269 249 256 281 311 315 320 335 356 14 18 2 356 354 347 318 322 335 334 330 322 321 323 321 317 306 304 310 299 288
233 243 239 251 252 251 251 277 293 285 274 294 297 302 284 264 261 268 280 295 309 332 349 3 19 355 335 340 343 334 327 330 332 321 319 324 326 324 324 311 294 285 281 284
223 199 231 253 269 290 267 257 268 291 306 308 304 285 262 248 255 258 273 286 283 305 347 1 332 310 316 331 337 339 338 343 336 323 320 321 319 315 319 312 294 286 280 264
203 199 213 240 232 227 251 264 264 245 266 280 294 302 300 263 264 276 276 279 275 277 305 326 323 311 312 323 329 334 336 335 318 313 316 316 316 316 313 316 322 313 303 306